Regional Weather Roundup
Issued by NWS Wilmington, NC

Home | Current Version | Previous Version | Text Only | Print | Product List | Glossary On
Versions: 1 2 3 4 5 6 7 8 9 10 11 12 13 14 15 16 17 18 19 20 21 22 23 24 25 26 27
000
ASUS42 KILM 222213
RWRILM
RWRILM
REGIONAL HOURLY WEATHER ROUNDUP
NATIONAL WEATHER SERVICE WILMINGTON NC
600 PM EDT WED MAR 22 2017

NOTE: "FAIR" INDICATES FEW OR NO CLOUDS BELOW 12,000 FEET WITH NO
SIGNIFICANT WEATHER AND/OR OBSTRUCTIONS TO VISIBILITY.

...............WFO WILMINGTON COUNTY WARNING AREA...............

......COASTAL NC AND SC COUNTIES......

CITY           SKY/WX    TMP DP  RH WIND       PRES   REMARKS
WILMINGTON     CLOUDY    58  46  64 E9G20     30.18R
N MYRTLE BEACH CLOUDY    59  49  69 E13G21    30.15R
MYRTLE BEACH   MOSUNNY   61  50  67 E12       30.16R

......INLAND NC AND SC COUNTIES.......

CITY           SKY/WX    TMP DP  RH WIND       PRES   REMARKS
LUMBERTON      MOSUNNY   64  31  28 N9        30.16R
ELIZABETHTOWN  MOSUNNY   63  42  46 NE5       30.17R
WHITEVILLE     MOSUNNY   65  38  37 N5        30.15R
FLORENCE       CLOUDY    63  22  20 N13G23    30.18R
DARLINGTON     CLOUDY    62  30  29 N13       30.20R
KINGSTREE      FAIR      64  23  20 N6        30.16R
HARTSVILLE     FAIR      61  27  27 N9        30.19R
BENNETTSVILLE  NOT AVBL
CONWAY         FAIR      63  37  39 N7        30.15R
GEORGETOWN     FAIR      63  50  63 E9        30.16R
MARION         FAIR      63  32  31 N13G18    30.17R

....................REST OF NORTH CAROLINA......................

.........EASTERN NC.........

CITY           SKY/WX    TMP DP  RH WIND       PRES   REMARKS
CAPE HATTERAS  SUNNY     48  28  46 N14G26    30.26R
JACKSONVILLE   SUNNY     59  29  31 NE14      30.20R
MOREHEAD CITY  SUNNY     53  32  44 NE16G24   30.22R
KENANSVILLE    MOSUNNY   59  27  29 NE12G21   30.20R
NEW BERN       SUNNY     56  21  25 N13       30.23R
ELIZABETH CITY SUNNY     49  25  39 N17       30.27R

.........CENTRAL NC.........

CITY           SKY/WX    TMP DP  RH WIND       PRES   REMARKS
RALEIGH DURHAM MOSUNNY   58  14  17 NE15G24   30.22R
ROCKY MOUNT    SUNNY     56  19  23 NE13      30.24R
ROANOKE RAPIDS NOT AVBL
FAYETTEVILLE   PTSUNNY   65  34  31 MISG      30.17R
HOFFMAN        CLOUDY    63  23  22 N9        30.19R

.........WESTERN NC.........

CITY           SKY/WX    TMP DP  RH WIND       PRES   REMARKS
CHARLOTTE      CLOUDY    61  17  18 NE10      30.20S
GREENSBORO     PTSUNNY   58  12  16 NE12      30.20R
HICKORY        NOT AVBL
BOONE          NOT AVBL
ASHEVILLE      NOT AVBL

.....................REST OF SOUTH CAROLINA.....................

.........EASTERN SC.........

CITY           SKY/WX    TMP DP  RH WIND       PRES   REMARKS
CHARLESTON     MOSUNNY   68  50  52 E14       30.12R
BEAUFORT MCAS  MOSUNNY   66  55  67 E16       30.12R
HILTON HEAD    MOSUNNY   64  55  72 E10       30.12R

.........CENTRAL SC.........

CITY           SKY/WX    TMP DP  RH WIND       PRES   REMARKS
COLUMBIA       CLOUDY    67  34  29 NE10      30.16R
ORANGEBURG     MOSUNNY   69  38  32 NE14      30.14R
SUMTER SHAW    CLOUDY    65  27  24 N14       30.15R

.........WESTERN SC.........

CITY           SKY/WX    TMP DP  RH WIND       PRES   REMARKS
GREENVILLE     NOT AVBL
ROCK HILL      MOSUNNY   61  21  21 VRB5      30.20S
ANDERSON       MOSUNNY   67  30  25 E10       30.15R
CLEMSON        NOT AVBL
GREENWOOD      CLOUDY    66  36  32 NE7       30.17R


...................COASTAL AND OFFSHORE REPORTS..................

................LOCAL PIERS AND NC RESERVE................


STATION/POSITION TIME  SKY/WX   TEMP    WIND        PRES    VSBY
                                AIR SEA DIR/SP/G
                 (UTC)          (F)     (DEG/KT/KT) (MB)    (MI)
JOHNY MRCER PIER 2136            57 58   70/ 17/ 19 1020.6R
NC RESRV MASNBRO 2045            58     100/  8     1020.0
OCEAN CREST PIER NOT AVBL
SPRINGMAID  PIER 2136                               1020.1R


................COASTAL AND OFFSHORE BUOYS................


STATION/POSITION TIME  SKY/WX   TEMP    WIND        PRES    VSBY
                                AIR SEA DIR/SP/G
                 (UTC)          (F)     (DEG/KT/KT) (MB)    (MI)
DIMNDSHOAL 41025 2150            48 73   10/ 27/ 35 1023.4R
WVE H/P(F/S)= 10/ 7

CAPE LOOKOUT     2100            51      40/ 26/ 31 1022.2R
ONSLOW BAY 41036 NOT AVBL
ONSLOW BAY 41064 2108            55      70/ 19/ 27 1021.6R
ONSLOW BAY 41159 2143               64                N/A
WVE H/P(F/S)=  8/ 8 SWL H/P/D(F/S/D)=  2/ 90/11

MASNBO INL 41110 2159               57                N/A
WVE H/P(F/S)=  5/ 5 SWL H/P/D(F/S/D)=  2/110/11

WILM HARBR 41108 2147               57                N/A
WVE H/P(F/S)=  4/ 6

27SE WRITB 41037 2108            57 64   90/ 19/ 29 1020.8R
FRYING PAN 41013 2150            60 65   50/ 21/ 29 1021.0R
WVE H/P(F/S)=  6/ 7 SWL H/P/D(F/S/D)=  2/ 80/ 8

SUNST NRSH 41024 NOT AVBL
CAPRS NRSH 41029 2108            60      90/ 16/ 23 1019.2R
EDISTO     41004 2150            63 65   60/ 21/ 23 1019.2R
WVE H/P(F/S)=  5/ 6 SWL H/P/D(F/S/D)=  2/ 90/11



..........OFFSHORE BUOYS BEYOND 100 NM OFFSHORE...........
.....IN A TRIANGLE---HAT TO BERMUDA TO BAHAMAS TO HAT.....


STATION/POSITION TIME  SKY/WX   TEMP    WIND        PRES    VSBY
                                AIR SEA DIR/SP/G
                 (UTC)          (F)     (DEG/KT/KT) (MB)    (MI)
150E HAT   41001 NOT AVBL
W BERMUDA  41048 2150            69 68  230/ 23/ 29 1013.7R
WVE H/P(F/S)=  9/ 8 SWL H/P/D(F/S/D)=  2/11

ATLANTIC S 41049 2150            71 73  150/  8/ 10 1020.1R
WVE H/P(F/S)=  7/11 SWL H/P/D(F/S/D)=  7/330/11

E BAHAMAS  41046 2150            76 78   50/ 12/ 16 1015.8R
WVE H/P(F/S)=  4/12 SWL H/P/D(F/S/D)=  3/12

NE BAHAMAS 41047 2150            71 73  230/  6/ 10 1018.0R
WVE H/P(F/S)=  5/11 SWL H/P/D(F/S/D)=  5/ 40/11

120E CANVRL41010 NOT AVBL

END




USA.gov is the U.S. government's official web portal to all federal, state and local government web resources and services.